Regional Weather Roundup
Issued by NWS

Home | Current Version | Previous Version | Graphics & Text | Print | Product List | Glossary On
Versions: 1 2 3 4 5 6 7 8 9 10 11 12 13 14 15 16 17 18 19 20 21 22 23 24 25 26 27 28 29 30 31 32 33 34 35 36 37 38 39 40 41 42 43 44 45 46 47 48 49 50
000
ASUS43 KLOT 020421
RWRIL

ILLINOIS REGIONAL WEATHER ROUNDUP
NATIONAL WEATHER SERVICE CHICAGO/ROMEOVILLE IL
1100 PM CDT WED APR 01 2015

NOTE: "FAIR" INDICATES FEW OR NO CLOUDS BELOW 12,000 FEET WITH NO
SIGNIFICANT WEATHER AND/OR OBSTRUCTIONS TO VISIBILITY.

* THESE STATIONS ARE NOT UNDER NWS QUALITY CONTROL. THEY ALSO MAY NOT
  REPORT WEATHER SUCH AS PRECIPITATION OR FOG.

ILZ001-002-007-009-015-016-024-020500-
NORTHWEST ILLINOIS

CITY           SKY/WX    TMP DP  RH WIND       PRES   REMARKS
MOLINE         MOCLDY    65  37  35 S18G26    29.73F
STERLING*      PTCLDY    61  39  44 S8        29.75F
SAVANNA*       PTCLDY    61  37  41 S15       29.73F
$$

ILZ003-004-008-010-011-017-018-020500-
NORTH CENTRAL ILLINOIS

CITY           SKY/WX    TMP DP  RH WIND       PRES   REMARKS
ROCKFORD       PTCLDY    58  40  51 S21G29    29.78F
FREEPORT*      PTCLDY    55  41  59 S16       29.76F
ROCHELLE*      PTCLDY    56  41  55 S20G25    29.79F
DE KALB*       PTCLDY    53  39  60 S16       29.81F
PERU*          MOCLDY    60  40  48 S20G28    29.80F
$$

ILZ005-006-012>014-019>023-020500-
NORTHEAST ILLINOIS

CITY           SKY/WX    TMP DP  RH WIND       PRES   REMARKS
CHICAGO-OHARE  PTCLDY    60  37  42 S18G25    29.82F
CHICAGO-MIDWAY MOCLDY    63  36  36 S17G25    29.84F
AURORA         MOCLDY    59  39  47 S16       29.82F
LANSING*       PTCLDY    56  35  43 S13       29.87F
JOLIET*        MOCLDY    61  39  44 S15       29.85F
WAUKEGAN       CLEAR     61  38  42 S17G25    29.80F
DUPAGE AIRPORT PTCLDY    58  39  49 S16       29.81F
KANKAKEE*      CLOUDY    58  38  48 SE12      29.89F
WHEELING       CLEAR     60  36  40 S15       29.83F
MORRIS*        MOCLDY    57  40  54 S16G22    29.83F
ROMEOVILLE*    MOCLDY    57  37  47 S16       29.84F
NORTHERLY ISL    N/A     62  34  35 S12         N/A
$$

LMZ740>746-020500-
SOUTHERN LAKE MICHIGAN

STATION/POSITION SKY/WX   TEMP    WIND        PRES    VSBY  WAVE
                          AIR SEA DIR/SP/G                  HT/PER
                          (F)     (DEG/KT/KT) (MB)    (MI)  (FT/S)
HARRISON CRIB              57     170/ 23/ 25   N/A
BURNHAM HARBOR             62     180/ 10/ 16   N/A
CALUMET HARBOR             62     170/ 11/ 16 1010.9F
BURNS HARBOR               59     170/ 14/ 22 1011.9F
MICHIGAN CITY              59     150/ 13/ 18   N/A
$$

ILZ025>027-034>036-040-047-049-050-058-095>099-020500-
WEST-CENTRAL ILLINOIS

CITY           SKY/WX    TMP DP  RH WIND       PRES   REMARKS
QUINCY         CLOUDY    63  49  60 S13       29.78F
GALESBURG*     CLOUDY    61  40  45 S10G16    29.77F
MACOMB*        MOCLDY    62  40  44 S15       29.80F
JACKSONVILLE*  CLOUDY    66  42  41 S8        29.82F
PITTSFIELD*    RAIN      61  49  64 S13       29.83F
$$

ILZ028>032-037-038-041>044-048-051>054-059>061-020500-
CENTRAL ILLINOIS

CITY           SKY/WX    TMP DP  RH WIND       PRES   REMARKS
PONTIAC        MOCLDY    58  42  55 S13G21    29.86F
BLOOMINGTON    MOCLDY    60  41  49 S22       29.86F
DECATUR        MOCLDY    60  39  45 SE14      29.87F
PEORIA         CLOUDY    64  40  41 S16G25    29.82F
LACON*         MOCLDY    62  38  42 S22G30    29.80F
LINCOLN*       CLOUDY    59  42  54 S12       29.84F
SPRINGFIELD    CLOUDY    64  41  42 S18       29.85S
TAYLORVILLE    CLOUDY    59  41  51 SE15      29.86F
$$

ILZ033-039-045-046-055>057-062-063-020500-
EAST-CENTRAL ILLINOIS

CITY           SKY/WX    TMP DP  RH WIND       PRES   REMARKS
CHAMPAIGN      MOCLDY    54  39  57 SE13      29.89F
DANVILLE*      MOCLDY    55  38  53 SE10      29.90F
RANTOUL*       MOCLDY    55  40  57 SE12      29.89F
MATTOON        MOCLDY    60  36  40 SE14      29.89F
PARIS*         PTCLDY    54  40  58 SE9       29.94F
$$

ILZ079-100>102-020500-
SOUTHWEST ILLINOIS

CITY           SKY/WX    TMP DP  RH WIND       PRES   REMARKS
ALTON          CLOUDY    64  35  35 SE10      29.85F
BELLEVILLE     CLOUDY    64  42  44 SE8       29.85F
CAHOKIA*       MOCLDY    65  44  46 S8        29.85S
SPARTA*        MOCLDY    61  41  47 SE5       29.89F
$$

ILZ064>066-069>071-074>076-080>082-084>086-088>090-092>094-020500-
SOUTH-CENTRAL ILLINOIS

CITY           SKY/WX    TMP DP  RH WIND       PRES   REMARKS
CARBONDALE     PTCLDY    66  43  43 S13       29.89F
CAIRO*         MOCLDY    64  57  78 S8        29.93S
EFFINGHAM*     CLOUDY    61  33  35 SE12      29.92F
MARION         MOCLDY    66  43  42 S13       29.92F
MT. VERNON     CLOUDY    63  37  39 SE8       29.91S
CENTRALIA*     CLOUDY    64  36  36 SE13G20   29.90S
SALEM*         CLOUDY    66  37  35 SE12      29.90F
METROPOLIS*    CLOUDY    60  52  73 S8        29.93S
$$

ILZ067-068-072-073-078-083-087-091-020500-
SOUTHEAST ILLINOIS

CITY           SKY/WX    TMP DP  RH WIND       PRES   REMARKS
LAWRENCEVILLE  PTCLDY    60  34  37 SE13      29.95F
FLORA*         PTCLDY    58  41  52 SE7       29.92F
FAIRFIELD*     CLOUDY    63  37  38 SE12G18   29.90F
HARRISBURG*    CLOUDY    63  39  41 S13       29.93F
ROBINSON*      PTCLDY    58  34  41 SE8       29.95F
CARMI*         CLOUDY    60  35  39 SE12      29.93F
$$

ABBREVIATIONS USED IN REMARKS
   TC - TEMPERATURE IN CELSIUS
  WCI - WIND CHILL INDEX
   HX - HEAT INDEX
  VSB - VISIBILITY
$$




USA.gov is the U.S. government's official web portal to all federal, state and local government web resources and services.